Crosby, ND

10:07 PM CST on November 19, 2019 (GMT -0600)
Crosby

Weather History for KD50 - September, 2019

Change the Weather History Date:

Monday, September 23, 2019

  Actual Average (KISN) Record (KISN)
Temperature  
Mean Temperature 63 °F -  
Max Temperature 78 °F 67 °F 93 °F (1992)
Min Temperature 48 °F 37 °F 26 °F (1985)
Degree Days  
Heating Degree Days 2    
Growing Degree Days 13 (Base 50)    
Moisture  
Dew Point 48 °F    
Average Humidity 66    
Maximum Humidity 100    
Minimum Humidity 34    
Precipitation  
Precipitation 0.00 in - - ()
Sea Level Pressure  
Sea Level Pressure 29.78 in    
Wind  
Wind Speed 11 mph (SW)    
Max Wind Speed 22 mph    
Max Gust Speed 26 mph    
Visibility 10 miles    
Events      
Averages and records for this station are not official NWS values.
T = Trace of Precipitation, MM = Missing Value Source: NWS Daily Summary

Daily Weather History Graph

Daily Weather History Graph

Search for Another Location

Airport or City:

Astronomy

Sep. 23, 2019 Rise Set
Actual Time 7:40 AM CDT 7:49 PM CDT
Civil Twilight 7:09 AM CDT 8:20 PM CDT
Nautical Twilight 6:32 AM CDT 8:57 PM CDT
Astronomical Twilight 5:53 AM CDT 9:36 PM CDT
Moon 12:53 AM CDT (9/23) 5:17 PM CDT (9/23)
Length of Visible Light 13h 11m
Length of Day
12h 08m
Waning Crescent, 33% of the Moon is Illuminated
Sep 23
Waning Crescent
Sep 28
New
Oct 5
First Quarter
Oct 13
Full
Oct 21
Last Quarter

Hourly Weather History & Observations

Time (CDT) Temp. Dew Point Humidity Pressure Visibility Wind Dir Wind Speed Gust Speed Precip Events Conditions
12:15 AM 51.8 °F 48.2 °F 88% 29.83 in 10.0 mi SSW 9.2 mph - N/A   Clear
12:55 AM 51.8 °F 48.2 °F 88% 29.83 in 10.0 mi SSW 10.4 mph - N/A   Clear
1:15 AM 50.0 °F 46.4 °F 87% 29.84 in 10.0 mi SSW 9.2 mph - N/A   Partly Cloudy
1:35 AM 50.0 °F 46.4 °F 87% 29.84 in 10.0 mi SSW 10.4 mph - N/A   Clear
1:55 AM 50.0 °F 46.4 °F 87% 29.83 in 10.0 mi SSW 9.2 mph - N/A   Clear
2:15 AM 50.0 °F 46.4 °F 87% 29.83 in 10.0 mi SSW 10.4 mph - N/A   Clear
2:35 AM 50.0 °F 46.4 °F 87% 29.83 in 10.0 mi SSW 10.4 mph - N/A   Clear
2:55 AM 50.0 °F 46.4 °F 87% 29.83 in 10.0 mi SSW 10.4 mph - N/A   Clear
3:15 AM 50.0 °F 46.4 °F 87% 29.83 in 10.0 mi South 10.4 mph - N/A   Clear
3:35 AM 50.0 °F 46.4 °F 87% 29.83 in 10.0 mi South 10.4 mph - N/A   Clear
3:55 AM 50.0 °F 46.4 °F 87% 29.83 in 10.0 mi SSW 9.2 mph - N/A   Clear
4:15 AM 50.0 °F 48.2 °F 94% 29.83 in 10.0 mi SSW 9.2 mph - N/A   Clear
4:35 AM 50.0 °F 46.4 °F 87% 29.83 in 10.0 mi SSW 11.5 mph - N/A   Clear
4:55 AM 50.0 °F 46.4 °F 87% 29.83 in 10.0 mi South 11.5 mph - N/A   Clear
5:15 AM 48.2 °F 48.2 °F 100% 29.83 in 10.0 mi SSW 10.4 mph - N/A   Clear
5:35 AM 48.2 °F 48.2 °F 100% 29.82 in 10.0 mi SSW 11.5 mph - N/A   Clear
5:55 AM 48.2 °F 48.2 °F 100% 29.82 in 10.0 mi SSW 11.5 mph - N/A   Clear
6:15 AM 48.2 °F 48.2 °F 100% 29.82 in 10.0 mi SSW 11.5 mph - N/A   Clear
6:35 AM 48.2 °F 46.4 °F 93% 29.82 in 10.0 mi SSW 11.5 mph - N/A   Clear
7:15 AM 48.2 °F 46.4 °F 93% 29.83 in 10.0 mi SSW 12.7 mph - N/A   Clear
7:35 AM 48.2 °F 46.4 °F 93% 29.83 in 10.0 mi SSW 10.4 mph - N/A   Clear
7:55 AM 48.2 °F 46.4 °F 93% 29.83 in 10.0 mi SSW 11.5 mph - N/A   Clear
8:15 AM 48.2 °F 46.4 °F 93% 29.82 in 10.0 mi SSW 13.8 mph - N/A   Clear
8:35 AM 50.0 °F 48.2 °F 94% 29.82 in 10.0 mi SSW 11.5 mph - N/A   Clear
8:55 AM 50.0 °F 48.2 °F 94% 29.83 in 10.0 mi SSW 11.5 mph - N/A   Clear
9:15 AM 53.6 °F 48.2 °F 82% 29.82 in 10.0 mi SSW 13.8 mph - N/A   Clear
9:35 AM 55.4 °F 48.2 °F 77% 29.82 in 10.0 mi SSW 11.5 mph - N/A   Clear
9:55 AM 57.2 °F 46.4 °F 67% 29.83 in 10.0 mi SSW 13.8 mph - N/A   Clear
10:15 AM 60.8 °F 48.2 °F 63% 29.82 in 10.0 mi SSW 13.8 mph - N/A   Clear
10:55 AM 64.4 °F 48.2 °F 56% 29.81 in 10.0 mi SSW 12.7 mph - N/A   Clear
11:15 AM 66.2 °F 48.2 °F 52% 29.82 in 10.0 mi SSW 12.7 mph - N/A   Clear
11:35 AM 68.0 °F 48.2 °F 49% 29.81 in 10.0 mi SSW 12.7 mph - N/A   Clear
11:55 AM 69.8 °F 48.2 °F 46% 29.80 in 10.0 mi SSW 11.5 mph - N/A   Clear
12:15 PM 71.6 °F 48.2 °F 43% 29.80 in 10.0 mi SW 12.7 mph - N/A   Clear
12:35 PM 71.6 °F 48.2 °F 43% 29.80 in 10.0 mi SSW 13.8 mph 19.6 mph N/A   Clear
12:55 PM 73.4 °F 48.2 °F 41% 29.79 in 10.0 mi SSW 16.1 mph - N/A   Clear
1:15 PM 75.2 °F 48.2 °F 38% 29.79 in 10.0 mi SSW 16.1 mph - N/A   Clear
1:35 PM 75.2 °F 48.2 °F 38% 29.78 in 10.0 mi SW 13.8 mph 21.9 mph N/A   Clear
1:55 PM 75.2 °F 51.8 °F 44% 29.78 in 10.0 mi SSW 13.8 mph 20.7 mph N/A   Clear
2:15 PM 77.0 °F 51.8 °F 41% 29.76 in 10.0 mi SSW 15.0 mph - N/A   Clear
2:35 PM 77.0 °F 51.8 °F 41% 29.76 in 10.0 mi SSW 16.1 mph - N/A   Clear
2:55 PM 77.0 °F 51.8 °F 41% 29.75 in 10.0 mi SSW 13.8 mph 20.7 mph N/A   Clear
3:15 PM 78.8 °F 50.0 °F 36% 29.74 in 10.0 mi SW 19.6 mph - N/A   Clear
3:35 PM 78.8 °F 50.0 °F 36% 29.73 in 10.0 mi SW 17.3 mph - N/A   Clear
3:55 PM 78.8 °F 48.2 °F 34% 29.73 in 10.0 mi WSW 19.6 mph 26.5 mph N/A   Clear
4:15 PM 78.8 °F 50.0 °F 36% 29.73 in 10.0 mi WSW 21.9 mph - N/A   Partly Cloudy
4:35 PM 77.0 °F 50.0 °F 39% 29.73 in 10.0 mi WSW 17.3 mph 24.2 mph N/A   Clear
4:55 PM 78.8 °F 50.0 °F 36% 29.72 in 10.0 mi WSW 15.0 mph 21.9 mph N/A   Clear
5:15 PM 78.8 °F 48.2 °F 34% 29.72 in 10.0 mi West 16.1 mph 21.9 mph N/A   Clear
5:35 PM 78.8 °F 50.0 °F 36% 29.72 in 10.0 mi West 19.6 mph 25.3 mph N/A   Clear
5:55 PM 77.0 °F 48.2 °F 36% 29.72 in 10.0 mi West 13.8 mph 21.9 mph N/A   Clear
6:15 PM 75.2 °F 48.2 °F 38% 29.73 in 10.0 mi West 18.4 mph - N/A   Partly Cloudy
6:35 PM 73.4 °F 48.2 °F 41% 29.74 in 10.0 mi West 12.7 mph - N/A   Clear
6:55 PM 73.4 °F 50.0 °F 44% 29.74 in 10.0 mi West 13.8 mph - N/A   Clear
7:15 PM 71.6 °F 48.2 °F 43% 29.74 in 10.0 mi West 10.4 mph - N/A   Mostly Cloudy
7:35 PM 68.0 °F 50.0 °F 52% 29.74 in 10.0 mi West 8.1 mph - N/A   Mostly Cloudy
7:55 PM 64.4 °F 50.0 °F 59% 29.74 in 10.0 mi West 8.1 mph - N/A   Clear
8:15 PM 64.4 °F 50.0 °F 59% 29.74 in 10.0 mi WSW 9.2 mph - N/A   Mostly Cloudy
8:35 PM 62.6 °F 50.0 °F 63% 29.74 in 10.0 mi WSW 8.1 mph - N/A   Overcast
8:55 PM 64.4 °F 50.0 °F 59% 29.74 in 10.0 mi West 10.4 mph - N/A   Mostly Cloudy
9:15 PM 62.6 °F 50.0 °F 63% 29.74 in 10.0 mi WSW 9.2 mph - N/A   Mostly Cloudy
9:35 PM 59.0 °F 50.0 °F 72% 29.74 in 10.0 mi WSW 9.2 mph - N/A   Clear
9:55 PM 60.8 °F 48.2 °F 63% 29.74 in 10.0 mi WSW 9.2 mph - N/A   Clear
10:15 PM 59.0 °F 48.2 °F 67% 29.73 in 10.0 mi WSW 9.2 mph - N/A   Clear
10:35 PM 57.2 °F 48.2 °F 72% 29.74 in 10.0 mi SW 9.2 mph - N/A   Partly Cloudy
10:55 PM 57.2 °F 50.0 °F 77% 29.74 in 10.0 mi West 9.2 mph - N/A   Clear
11:15 PM 59.0 °F 50.0 °F 72% 29.74 in 10.0 mi West 8.1 mph - N/A   Clear
11:35 PM 57.2 °F 50.0 °F 77% 29.73 in 10.0 mi West 5.8 mph - N/A   Clear
11:55 PM 57.2 °F 50.0 °F 77% 29.73 in 10.0 mi Calm Calm - N/A   Clear